Overview Statistics Trail Chart Weather Telemetry Raw packets
 

This is the latest recevied weather packets stored in our database for station/object N5JXS. If no packets are shown the sender has not sent any weather packets the latest 10 day(s).

<< 61 62 63 64 65 66 67 >>
Time Temp. Humidity Pressure Rain* Wind** Luminosity Snow
1788198872 23.89° C 33% 1029.1 hPa 0 mm - 327 W/m² -
1788198567 22.78° C 35% 1029 hPa 0 mm - 461 W/m² -
1788198263 23.33° C 37% 1029 hPa 0 mm - 240 W/m² -
1788197962 22.78° C 36% 1029.2 hPa 0 mm - 230 W/m² -
1788197661 22.78° C 36% 1029.1 hPa 0 mm - 210 W/m² -
1788197357 22.78° C 35% 1029.3 hPa 0 mm - 244 W/m² -
1788197052 22.78° C 37% 1029.3 hPa 0 mm - 255 W/m² -
1788196752 23.33° C 38% 1029.3 hPa 0 mm - 263 W/m² -
1788196449 22.78° C 37% 1029.2 hPa 0 mm - 258 W/m² -
1788196151 23.33° C 36% 1029.3 hPa 0 mm - 271 W/m² -
1788195841 23.33° C 38% 1029.2 hPa 0 mm - 349 W/m² -
1788195537 23.33° C 35% 1029.2 hPa 0 mm - 441 W/m² -
1788195233 23.33° C 38% 1029.3 hPa 0 mm - 618 W/m² -
1788194929 23.33° C 38% 1029.1 hPa 0 mm - 356 W/m² -
1788194625 22.78° C 40% 1029 hPa 0 mm - 606 W/m² -
1788194320 22.22° C 40% 1029.1 hPa 0 mm - 534 W/m² -
1788194016 21.67° C 41% 1029.1 hPa 0 mm - 432 W/m² -
1788193714 21.67° C 40% 1029.2 hPa 0 mm - 360 W/m² -
1788193410 21.67° C 45% 1029 hPa 0 mm - 286 W/m² -
1788193108 21.11° C 47% 1029 hPa 0 mm - 266 W/m² -
1788192805 20.56° C 46% 1029.1 hPa 0 mm - 216 W/m² -
1788192500 21.11° C 43% 1029.1 hPa 0 mm - 187 W/m² -
1788192194 21.11° C 43% 1029 hPa 0 mm - 163 W/m² -
1788191889 20.56° C 45% 1028.8 hPa 0 mm - 163 W/m² -
1788191584 20.56° C 45% 1029.1 hPa 0 mm - 150 W/m² -

* Rain latest hour (hover to see other rain measurements)
** Current wind speed in m/s (hover to see current wind gust speed)